Location: Street
(51.1247°N, 2.7429°W)
Time: 16:45:26
(UTC+01:00)

S-56A Canister/Altair - Visible Passes

Search period start: 12 May 2021 00:00
Search period end: 22 May 2021 00:00
Orbit: 631 x 2501 km, 38.9° (Epoch: 11 May)

Date Brightness Start Highest point End Pass type
(mag) Time Alt. Az. Time Alt. Az. Time Alt. Az.
12 May 10.3 22:41:59 10° W 22:51:56 26° SW 22:58:11 15° S visible
13 May 10.4 22:08:05 10° W 22:19:03 30° SW 22:27:05 12° SSE visible
14 May 10.5 21:34:14 10° W 21:46:04 33° SSW 21:55:20 10° SSE visible
14 May 10.8 23:44:42 10° WSW 23:48:27 12° SW 23:51:53 10° SW visible
15 May 10.8 23:09:31 10° W 23:15:46 15° SW 23:21:12 10° SSW visible
16 May 10.8 22:35:00 10° W 22:43:00 18° SW 22:49:48 10° S visible
17 May 10.8 22:00:46 10° W 22:10:08 21° SW 22:18:04 10° S visible
18 May 10.9 21:26:43 10° W 21:37:12 25° SW 21:46:05 10° S visible
20 May 11.4 22:32:30 10° WSW 22:33:38 10° WSW 22:34:46 10° SW visible
21 May 11.3 21:55:31 10° WSW 22:00:50 13° SW 22:05:47 10° SSW visible
